Location: Chippewa Lake
(41.0698°N, 81.9010°W)
Time: 19:59:50
(UTC+00:00)

Cosmos 1470 - Pass Details

Date: 09 May 2021
Orbit: 521 x 540 km, 82.5° (Epoch: 16 June)

Event Time Altitude Azimuth Distance (km) Brightness Sun altitude
Rises 07:36:11 0° 345° (NNW) 2,673 6.9 -24.0°
Reaches altitude 10° 07:38:24 10° 338° (NNW) 1,782 5.8 -23.7°
Enters shadow 07:40:48 31° 314° (NW) 950 4.0 -23.5°
